Flag for U.S.A. Weather past 2 weeks in Columbia, South Carolina, U.S.A.

Now
78 °F

Partly sunny.


Feels Like: 80 °F
Forecast: 72 / 87 °F
Wind: 5 mph from North

Location: Columbia Owens Downtown Airport

Current Time: Sep 5, 2015 at 10:20:41 AM

Latest Report: Sep 5, 2015 at 9:53 AM


Visibility: 6 mi

Pressure: 30.11 "Hg

Humidity: 79%

Dew point: 71 °F

Location of ColumbiaLocation

Historic Weather in Columbia — Graph

°F

Columbia temperature yesterday

Maximum temperature yesterday: 96 °F (at 2:53 PM)
Minimum temperature yesterday: 73 °F (at 6:53 AM)
Average temperature yesterday: 84 °F

Past Weeks' High & Low Weather Summary

 TemperatureHumidityPressure
High96 °F (Sep 4, 2:53 PM)94% (Aug 30, 6:53 PM)30.22 "Hg (Aug 30, 6:53 PM)
Low66 °F (Aug 29, 3:53 AM)30% (Aug 29, 2:53 PM)29.81 "Hg (Aug 25, 5:53 PM)
Average80 °F69%30.02 "Hg
* Reported Aug 21 8:53 AM — Sep 5 8:53 AM, Columbia, Weather by CustomWeather, © 2015

Note: Actual official high and low records may vary slightly from our data, if they occured in-between our weather recording intervals... More about our weather records

Advertising

Columbia weather history for previous 24 hours

 ConditionsComfort  
Time TempWeatherWind HumidityBarometerVisibility
8:53 AM
Sat, Sep 5
75 °FHaze.3 mph85%30.11 "Hg4 mi
7:53 AM73 °FFog.No wind88%30.09 "Hg5 mi
6:53 AM72 °FClear.No wind91%30.07 "Hg7 mi
5:53 AM72 °FClear.No wind87%30.05 "Hg9 mi
4:53 AM71 °FClear.No wind90%30.05 "Hg9 mi
3:53 AM70 °FPassing clouds.3 mph90%30.06 "Hg9 mi
2:53 AM70 °FPassing clouds.5 mph93%30.05 "Hg9 mi
1:53 AM70 °FHeavy rain. Fog.8 mph90%30.09 "Hg3 mi
12:53 AM81 °FMostly cloudy.No wind72%30.05 "Hg10 mi
11:53 PM
Fri, Sep 4
81 °FPassing clouds.No wind72%30.03 "Hg10 mi
10:53 PM81 °FPassing clouds.3 mph74%30.03 "Hg10 mi
9:53 PM82 °FClear.No wind72%30.00 "Hg10 mi
8:53 PM84 °FPassing clouds.5 mph65%29.97 "Hg10 mi
7:53 PM86 °FSunny.No wind57%29.96 "Hg10 mi
6:53 PM91 °FSunny.No wind45%29.94 "Hg10 mi
5:53 PM94 °FSunny.3 mph40%29.93 "Hg10 mi
4:53 PM94 °FPassing clouds.No wind38%29.92 "Hg10 mi
3:53 PM95 °FSunny.No wind36%29.92 "Hg10 mi
2:53 PM96 °FSunny.5 mph37%29.95 "Hg10 mi
1:53 PM95 °FSunny.No wind37%29.97 "Hg10 mi
12:53 PM92 °FPassing clouds.3 mph44%29.97 "Hg10 mi
11:53 AM91 °FSunny.6 mph50%29.98 "Hg10 mi
10:53 AM88 °FSunny.No wind61%29.98 "Hg10 mi
Weather by CustomWeather, © 2015

See weather overviewHow to use our weather pages